GFSMA_500_rhum_228.txt.gz
RH
84 94 97 92 85 65 61 72 39 30 24 22 26 28 26 24 23 21 16 15 14 13 13 14 15 14 15 16 16 16 17 21 25 28 30 32 32 26 22 20 20 13 10
86 95 94 92 92 72 66 64 46 33 25 24 24 29 27 23 20 23 22 18 15 14 14 14 15 14 15 15 14 15 18 21 24 28 31 32 37 40 38 27 22 20 12
83 90 94 90 86 81 71 53 40 32 26 25 26 34 34 28 23 20 22 22 22 19 16 14 14 13 13 14 15 18 19 21 24 26 30 33 36 37 37 41 32 29 24
81 80 83 89 95 92 82 55 42 36 29 26 23 28 31 31 24 19 20 20 23 24 21 18 17 16 15 16 16 18 20 22 24 27 28 31 33 36 35 36 37 40 36
72 86 93 82 96 88 76 62 42 41 35 29 28 31 56 47 27 18 18 19 22 25 24 20 18 17 16 17 18 19 21 22 27 29 28 29 32 34 34 35 35 38 39
55 54 80 80 82 87 86 76 49 42 44 39 32 38 80 85 28 26 21 21 23 26 23 20 18 18 17 20 20 21 23 25 25 25 26 28 30 34 35 34 37 42 42
56 48 50 62 81 66 70 78 66 48 44 41 36 39 89 86 57 29 28 27 27 27 24 25 23 24 24 23 24 24 24 25 24 25 26 27 30 34 35 35 38 42 42
56 50 49 56 56 59 55 53 64 59 52 47 45 54 70 81 46 30 28 31 32 32 33 32 30 29 28 26 22 23 24 26 28 29 30 30 30 30 32 36 35 36 41
56 59 59 52 51 53 48 57 59 65 71 65 59 55 55 67 57 28 28 31 29 29 28 30 30 28 24 24 25 26 30 32 34 36 36 37 39 38 37 42 52 45 44
65 72 73 66 57 58 51 47 68 66 72 67 60 56 49 44 46 30 28 28 29 33 35 35 34 33 32 32 34 37 37 38 43 42 40 43 46 48 48 54 67 82 69
68 74 72 71 62 65 66 51 58 46 64 75 58 59 53 41 46 48 35 34 33 38 39 35 34 38 41 40 37 37 36 36 38 41 42 46 50 55 61 67 69 90 96
78 72 74 73 68 64 69 62 54 48 40 42 55 47 48 44 41 48 44 40 33 31 36 38 38 41 39 39 39 41 42 44 46 51 57 64 72 93 83 94 94 96 97
81 74 72 74 73 67 75 78 60 58 56 51 47 41 38 41 46 43 35 32 32 34 33 38 41 42 40 41 42 42 44 48 54 56 64 69 78 85 94 98 92 88 88
82 81 90 93 86 67 62 69 77 69 57 56 50 37 43 48 41 31 36 34 29 27 29 36 44 49 52 54 50 48 47 53 59 63 68 73 96 93 61 82 73 95 97
95 96 82 91 82 63 64 61 61 59 55 53 50 46 42 38 39 40 37 40 39 32 32 38 39 42 47 52 54 56 56 62 67 63 69 86 91 83 82 97 97 96 93
96 96 94 96 96 86 65 55 52 49 43 44 46 43 42 42 38 38 36 40 38 36 31 42 46 47 49 50 57 57 59 70 68 62 68 74 96 97 97 97 87 80 61
71 66 97 95 96 96 94 72 51 48 46 48 44 38 35 38 34 39 43 42 34 32 31 39 38 40 39 42 54 60 70 69 66 69 81 96 80 95 72 78 78 52 51
70 69 82 95 79 81 96 95 64 54 58 49 52 52 46 41 36 35 37 40 47 42 36 37 40 40 41 41 48 60 73 71 84 80 76 79 80 98 93 68 44 50 60
66 58 71 86 80 98 97 95 89 64 72 65 57 57 56 54 46 40 39 39 40 46 43 41 41 46 54 50 56 68 72 73 96 79 60 81 94 80 50 43 41 47 69
82 74 67 97 78 73 88 91 95 87 80 68 59 52 52 53 53 50 48 48 49 42 47 44 46 45 54 62 68 70 72 90 76 58 96 88 74 36 27 30 37 46 52
86 65 71 72 78 80 95 93 85 92 88 93 68 50 50 46 55 58 55 54 54 50 50 51 52 47 54 66 82 79 70 55 49 43 51 41 32 17 23 33 62 58 53
76 57 95 99 85 99 92 76 96 94 97 97 100 98 93 96 96 89 83 68 57 59 53 59 80 66 75 72 83 70 91 82 97 37 33 26 17 24 35 46 68 70 37
59 63 81 81 84 85 89 79 76 73 93 81 85 97 82 92 78 86 96 92 93 94 93 95 94 91 97 97 96 96 92 83 48 28 25 11 28 43 33 42 38 37 34
65 62 56 58 63 60 58 65 70 74 73 68 67 75 68 64 59 91 97 76 85 91 96 99 97 92 96 97 95 96 64 42 40 15 10 7 18 39 42 32 28 33 35
64 59 60 60 56 73 84 76 78 68 68 80 80 74 74 94 82 78 70 95 100 94 92 97 98 97 97 90 95 93 82 97 19 11 9 24 36 52 62 22 22 24 29
68 57 46 45 48 51 53 64 75 77 75 81 95 90 92 94 91 85 79 68 89 94 95 98 97 96 88 94 79 58 92 62 20 15 15 43 83 92 32 32 43 34 38

GFSMA_500_rhum_234.txt.gz
RH
55 78 97 90 97 95 98 86 71 61 59 56 33 24 24 19 19 16 14 15 15 12 12 13 13 14 16 16 16 16 16 19 22 24 25 25 26 27 27 26 26 24 23
47 93 97 95 96 89 90 96 82 77 67 60 43 28 26 22 18 18 16 15 14 12 13 12 12 13 14 14 14 14 14 17 19 22 24 25 26 26 26 27 28 29 29
53 98 91 89 95 96 93 96 80 84 68 68 55 38 30 29 24 20 18 16 16 15 14 12 11 12 13 14 14 13 13 15 17 18 20 21 22 23 25 25 27 28 32
84 98 89 94 83 98 96 89 96 80 78 68 53 37 33 29 26 24 20 18 16 16 16 15 14 14 14 13 12 13 13 13 15 16 16 16 18 21 23 22 26 26 28
96 90 90 87 95 90 96 89 96 94 78 83 62 39 33 33 29 26 24 21 19 17 17 16 16 16 16 17 15 15 14 14 14 15 17 16 17 20 21 22 24 25 27
96 88 90 91 95 89 96 87 95 95 72 92 68 40 31 32 32 25 23 24 19 17 18 18 17 16 19 19 17 17 16 15 15 17 18 20 21 21 22 25 28 31 32
98 94 94 82 88 96 95 95 86 95 93 77 81 46 34 31 31 32 47 62 32 20 18 18 18 16 16 19 18 18 16 17 18 20 21 23 23 25 27 29 32 36 40
96 94 92 83 88 98 93 96 96 89 96 86 85 83 45 31 29 40 56 72 56 24 22 18 17 15 15 16 18 22 20 20 21 20 22 25 28 31 34 37 38 39 41
98 94 94 90 86 91 83 95 97 89 95 96 96 94 80 36 48 53 65 100 70 31 22 21 21 19 18 20 24 24 24 25 25 23 24 29 32 37 37 38 42 46 52
89 90 86 89 95 92 82 78 98 97 89 91 88 78 67 40 44 52 68 97 77 38 24 22 21 21 22 24 24 25 27 27 26 27 30 33 40 39 37 42 48 54 54
92 94 84 92 96 96 93 79 79 90 93 96 89 81 63 48 41 52 68 84 94 80 41 26 23 21 22 24 28 29 30 30 30 32 36 38 37 38 42 50 56 53 67
86 93 93 92 100 100 91 88 62 66 76 90 88 86 76 62 62 65 66 73 78 81 56 28 24 24 26 29 33 34 34 36 34 34 36 38 43 49 50 54 51 50 62
77 84 94 94 100 100 98 93 74 59 64 75 81 89 87 73 72 76 75 68 63 64 58 35 28 26 28 31 34 35 34 34 34 36 38 40 46 46 48 50 46 49 55
83 85 91 92 99 100 96 96 95 71 67 70 68 71 82 85 80 72 75 72 71 57 54 48 39 30 32 33 32 32 39 30 31 33 35 37 40 43 43 46 48 53 56
81 92 86 88 100 99 97 96 89 92 67 64 68 59 72 69 67 60 62 76 70 63 60 53 50 47 39 33 32 33 31 32 32 36 39 43 47 44 46 52 51 92 64
95 95 96 95 95 96 96 96 92 86 95 87 62 53 73 74 73 68 57 50 52 51 50 56 59 58 51 41 37 38 41 38 36 38 39 39 42 46 51 53 58 63 68
96 97 94 96 93 94 96 96 96 88 88 94 95 76 73 77 75 74 75 72 65 57 49 62 69 66 59 53 55 55 47 47 45 48 73 69 56 68 63 62 60 66 76
95 96 95 87 96 95 96 98 96 93 89 95 96 96 94 79 80 86 83 85 78 78 70 71 72 75 79 74 63 58 60 59 58 58 58 73 67 73 69 61 60 72 95
97 85 88 78 81 82 87 94 96 96 96 95 97 96 97 96 88 85 79 92 96 91 82 77 77 77 71 76 79 74 67 62 57 61 72 70 64 62 69 66 94 74 76
86 83 90 96 82 82 77 73 93 94 96 94 96 97 96 96 96 96 99 88 88 80 73 73 79 69 72 78 74 75 75 72 67 64 60 64 62 58 63 68 91 80 90
80 68 70 70 93 81 82 66 72 98 92 94 94 93 96 96 96 96 97 94 97 85 74 77 56 64 64 64 63 85 64 72 71 71 76 75 75 68 67 68 82 97 92
67 75 82 87 99 74 61 64 70 68 67 73 80 97 69 95 96 87 90 92 96 93 85 86 69 65 67 74 86 91 65 76 97 97 89 77 95 86 93 95 96 96 98
86 73 57 60 57 61 69 62 51 50 46 42 52 60 62 59 82 95 92 92 95 97 96 95 93 84 74 71 86 80 90 87 96 89 81 66 79 97 96 96 97 97 98
91 82 73 55 52 53 53 48 51 58 53 41 42 51 46 50 53 69 82 74 76 81 80 93 97 95 97 96 93 90 91 94 96 98 96 92 94 96 92 98 95 97 98
79 100 99 71 70 54 52 58 55 55 58 70 72 58 42 50 56 55 65 58 57 72 74 76 78 86 82 74 75 71 59 78 89 99 95 96 96 92 98 98 92 97 98
97 96 100 90 94 78 53 44 74 90 84 71 66 58 49 44 46 48 46 47 42 44 48 46 64 56 59 76 71 73 74 95 86 91 93 97 80 77 64 100 96 97 99

GFSMA_500_rhum_237.txt.gz
RH
61 67 73 80 98 89 96 95 83 49 53 55 46 34 22 19 19 17 16 16 15 15 15 15 14 14 15 17 17 16 16 18 21 22 23 24 24 24 24 25 25 23 23
74 67 64 80 98 96 93 98 95 68 61 60 55 46 29 22 20 20 18 16 15 15 14 13 13 13 15 15 15 15 15 15 18 20 21 22 22 24 24 23 26 27 29
81 76 64 70 99 85 86 94 97 82 70 70 65 54 40 30 24 23 21 20 17 15 13 12 12 13 14 14 14 14 14 13 14 16 17 18 19 21 22 22 24 26 27
71 84 68 52 72 76 92 94 93 97 80 81 74 63 43 33 29 24 23 20 19 19 16 14 13 13 14 14 14 14 13 13 13 14 14 15 17 19 20 21 22 25 27
60 66 74 59 60 94 96 95 96 94 95 85 75 63 51 33 31 28 24 22 22 20 20 17 14 13 13 15 14 14 14 13 13 13 13 14 17 19 19 20 24 26 29
88 76 70 70 91 94 96 94 97 96 95 91 83 67 55 34 30 31 29 27 27 24 22 20 18 17 17 18 19 17 16 15 14 14 14 15 17 18 20 23 27 32 36
86 81 73 92 96 97 96 95 90 97 90 96 83 69 57 42 30 30 32 33 33 34 27 22 20 19 19 21 20 19 17 16 14 14 16 18 18 19 22 26 31 35 38
87 86 81 96 96 96 95 95 96 98 84 96 94 86 66 49 32 29 30 33 45 59 42 25 19 17 18 21 22 21 18 16 16 15 17 18 19 21 27 32 36 38 39
83 86 83 97 96 96 95 95 96 97 95 96 96 93 83 59 52 40 36 41 46 66 74 38 24 19 19 19 20 20 22 20 17 18 19 21 21 25 31 37 38 39 45
81 78 95 94 98 97 95 94 95 94 92 96 92 94 90 97 90 51 44 48 46 68 96 58 29 24 21 21 22 23 25 23 21 20 21 23 24 29 34 41 38 39 43
97 93 88 92 98 92 93 96 93 94 95 98 88 98 96 98 97 95 58 52 57 69 99 86 42 24 21 21 23 23 22 22 23 22 21 24 29 32 38 40 39 43 45
89 93 85 90 84 91 96 97 100 91 93 91 98 94 97 91 83 98 74 60 61 66 86 84 67 31 20 20 22 22 23 25 25 23 22 26 30 35 38 38 44 48 48
82 86 90 88 77 78 96 100 97 96 92 80 95 86 97 97 97 96 83 62 54 63 69 71 79 65 29 23 24 24 23 24 26 25 25 29 33 35 38 40 44 44 45
76 88 93 100 96 94 90 98 92 88 88 87 82 70 78 95 96 94 97 79 76 69 62 64 65 69 56 32 28 26 25 26 27 27 28 29 32 36 35 37 36 36 36
71 77 87 86 97 94 94 93 90 95 89 81 74 80 72 89 95 96 96 97 95 84 81 68 59 54 49 45 38 30 29 31 31 32 37 31 31 31 34 37 39 42 42
62 75 80 79 88 91 88 90 85 87 91 80 72 74 80 73 76 82 90 95 96 92 85 83 85 86 66 50 49 47 45 39 33 32 32 33 37 38 40 46 45 42 42
60 62 78 78 78 91 92 78 75 72 70 72 76 69 73 82 77 81 71 73 74 80 66 77 89 88 81 71 64 56 49 47 42 35 35 35 37 40 44 54 66 61 52
90 84 93 94 95 94 96 96 93 87 75 79 92 90 85 84 80 85 74 72 69 76 72 64 67 75 77 77 70 65 65 62 53 46 46 46 45 47 47 46 48 60 60
94 85 91 91 84 96 99 94 97 96 89 91 90 95 94 91 92 92 94 89 88 79 88 87 83 91 99 91 90 91 86 79 67 66 62 56 56 51 50 55 59 59 54
82 82 90 96 91 96 96 95 95 90 94 88 98 92 96 88 95 96 96 96 96 94 88 77 79 72 85 96 95 96 94 95 97 84 71 66 71 65 64 66 69 71 65
78 100 98 100 95 93 96 96 93 83 90 96 96 86 95 97 96 96 96 97 96 93 96 96 88 89 79 86 84 85 85 89 86 76 77 76 87 77 65 61 80 89 96
70 86 96 98 96 100 96 80 87 85 87 92 82 66 85 97 91 96 96 96 96 96 97 82 93 96 92 91 97 88 77 70 68 83 76 68 82 81 78 95 93 90 97
72 70 96 93 83 100 98 72 77 58 92 75 65 58 70 58 60 70 73 80 77 72 65 81 74 94 97 99 95 90 94 93 87 95 87 84 90 88 93 95 96 92 91
73 92 75 71 93 70 92 68 68 72 93 61 65 61 50 48 50 48 53 59 59 56 53 68 72 90 82 93 92 97 95 98 97 95 95 92 82 74 68 76 76 77 84
77 76 81 68 81 62 76 78 96 97 84 63 56 52 48 51 46 43 43 51 54 42 46 61 63 70 76 77 87 90 92 96 55 57 79 79 70 72 83 90 93 86 80
86 71 71 80 96 87 94 83 78 76 67 64 60 56 51 47 47 56 61 70 50 43 46 44 47 58 52 45 48 58 60 45 54 69 94 70 68 69 78 84 87 84 79

GFSMA_500_rhum_240.txt.gz
RH
74 72 68 91 97 95 95 94 78 60 37 49 52 36 26 21 19 16 16 14 13 13 14 13 12 12 14 16 18 18 17 17 20 21 23 22 23 23 23 23 23 24 23
91 97 94 88 97 96 98 83 97 67 50 46 53 50 35 25 21 19 17 16 15 13 12 12 13 12 13 14 16 16 15 15 16 18 20 20 21 21 22 23 25 27 30
100 97 98 97 96 98 95 98 90 94 60 52 59 56 53 34 26 20 18 17 16 14 14 12 11 11 12 13 14 14 14 14 13 14 16 16 16 17 19 20 21 24 27
100 100 96 89 95 98 98 97 91 90 95 63 61 67 66 57 31 24 19 18 17 17 15 13 12 11 11 12 12 13 13 13 13 12 12 13 14 15 17 19 20 22 26
52 95 87 98 81 82 98 99 96 93 95 88 68 70 65 62 43 28 25 21 20 19 17 17 15 12 12 12 12 12 12 12 12 12 12 12 14 15 17 19 21 25 28
47 49 67 78 81 70 69 99 90 96 96 88 96 75 68 50 52 38 28 26 24 22 20 18 19 18 16 14 14 13 12 12 12 12 12 11 13 16 17 20 23 28 33
69 58 54 51 60 67 59 96 98 93 96 95 92 87 71 56 42 32 29 29 29 26 26 23 20 18 18 18 18 16 15 13 13 12 12 12 12 15 17 19 23 28 31
92 82 66 63 55 57 66 90 94 96 98 97 95 98 90 69 48 40 35 30 33 32 31 28 22 18 16 16 18 20 18 16 14 13 12 12 13 16 17 20 25 30 31
81 80 82 80 75 81 88 96 97 96 98 96 96 94 97 93 74 57 36 31 30 32 34 41 35 21 17 15 15 16 19 18 16 14 13 14 15 16 18 21 27 31 33
79 71 72 82 88 95 94 95 96 97 96 97 96 87 85 94 84 77 50 42 37 35 37 43 59 65 34 21 18 17 18 18 15 15 16 18 20 18 20 22 26 30 30
88 86 81 79 95 95 96 96 96 95 96 96 94 98 86 95 89 91 79 58 42 34 33 42 54 81 74 36 20 21 20 20 20 19 20 21 22 22 21 24 28 30 31
73 79 85 93 83 96 94 95 96 96 96 95 95 94 91 93 100 100 100 91 62 46 40 34 41 81 88 61 23 21 22 24 24 24 23 21 22 22 23 26 30 34 33
69 70 80 83 88 89 97 94 97 95 95 95 95 96 97 89 96 98 95 87 88 56 33 28 37 52 85 83 63 29 23 24 24 24 23 22 22 23 30 34 35 36 35
74 64 83 85 87 96 98 95 95 97 96 94 94 95 95 91 96 98 98 82 98 78 53 39 43 41 54 69 76 73 39 24 25 26 26 27 30 32 33 35 35 35 36
68 53 68 75 89 96 97 98 98 99 96 94 97 95 95 96 95 95 98 96 83 73 55 39 36 45 44 49 57 58 56 39 26 25 25 26 28 32 34 34 32 33 34
59 54 58 64 71 93 95 91 95 92 92 93 84 88 94 94 92 80 81 97 93 88 73 54 54 56 59 54 59 58 54 49 45 39 32 31 29 28 33 38 36 35 35
52 54 55 61 72 75 84 92 93 89 89 85 86 85 91 93 93 95 85 79 93 96 87 91 75 74 79 80 85 82 77 68 54 49 46 45 40 34 34 34 34 35 37
49 54 57 68 70 71 77 80 91 93 87 86 94 80 83 87 70 82 90 86 82 77 86 95 97 90 100 90 87 80 79 66 59 57 53 49 49 47 39 38 42 42 44
52 62 79 69 72 84 78 79 80 83 94 90 84 80 75 80 80 73 74 89 89 87 85 85 84 74 79 81 62 58 61 52 54 57 66 58 55 55 48 50 50 49 52
79 88 84 92 93 89 86 82 92 92 94 95 95 91 92 92 89 95 94 97 97 95 95 97 86 75 80 77 65 56 56 59 66 66 61 60 57 57 58 61 64 62 67
96 92 88 94 98 98 96 78 95 94 98 97 93 96 96 98 96 97 96 97 97 97 92 96 97 93 92 91 90 97 87 90 91 74 75 69 73 76 78 71 67 78 76
97 84 82 91 91 98 87 96 95 96 96 96 96 88 97 96 96 97 92 98 97 97 95 99 97 96 97 97 96 97 97 92 93 92 87 79 79 74 80 68 72 80 95
92 93 86 87 98 92 92 78 90 97 97 95 92 96 96 96 94 86 92 95 83 65 73 96 95 96 93 82 96 97 82 93 97 98 95 96 82 80 84 79 78 89 95
76 77 76 80 80 86 82 93 92 95 96 96 96 96 90 85 84 75 71 69 64 60 72 70 81 93 91 90 86 93 88 55 72 95 87 82 96 96 91 63 69 94 96
88 72 96 96 95 89 86 76 67 94 93 96 89 94 90 87 95 68 49 57 63 61 65 61 57 70 82 85 68 66 67 78 70 90 80 71 91 93 43 48 68 80 68
98 95 97 96 67 64 71 60 81 96 93 94 96 76 68 68 81 69 54 52 48 50 51 48 47 61 56 48 66 68 61 62 68 71 97 73 60 44 45 62 63 68 56

GFSMA_500_rhum_243.txt.gz
RH
73 81 95 75 88 88 94 100 64 52 37 48 46 31 25 22 17 15 14 13 12 11 10 10 11 12 13 15 18 18 18 18 20 22 23 23 24 25 24 24 23 24 23
77 81 97 81 90 95 86 92 89 66 48 38 49 44 29 25 22 18 15 14 13 12 10 9 9 10 11 13 15 16 16 16 16 18 20 20 20 20 22 22 22 24 27
81 77 97 90 99 84 95 97 94 85 69 45 42 46 44 30 24 23 19 15 14 14 12 10 10 8 9 11 13 14 14 14 14 14 14 15 16 15 17 20 20 21 22
65 82 97 96 96 99 96 83 98 91 97 62 47 52 49 52 35 24 22 19 16 13 13 12 12 10 9 9 11 13 13 13 13 13 12 12 12 13 14 18 20 20 22
58 95 95 97 98 100 83 88 88 88 94 93 65 55 54 49 47 29 22 22 21 18 16 13 12 11 11 9 10 11 12 12 12 12 12 11 11 11 13 14 17 20 24
46 80 84 89 92 94 95 94 92 94 88 73 87 78 58 55 52 40 28 23 23 21 20 18 16 15 14 12 11 10 11 11 11 11 12 11 11 10 11 14 15 19 26
69 63 95 74 76 97 84 86 76 96 87 88 70 88 80 76 58 46 34 23 22 24 21 21 18 17 16 15 14 12 11 10 10 11 11 12 11 10 11 13 16 18 23
90 44 40 73 97 93 95 70 84 98 80 96 76 96 92 85 79 52 44 34 26 25 26 24 21 19 16 14 14 15 14 12 11 11 11 12 12 11 11 13 15 18 22
83 87 46 41 43 89 85 90 76 68 77 86 97 96 94 81 81 78 55 51 30 26 26 29 25 21 17 14 12 13 14 13 12 13 12 12 13 13 13 14 16 18 22
97 88 90 75 48 49 60 65 86 82 73 64 88 95 95 92 82 84 72 64 40 27 26 28 28 26 22 22 15 12 12 12 12 13 12 12 13 14 16 17 18 19 23
94 86 84 82 82 68 57 56 65 73 88 80 91 96 96 86 86 88 94 69 49 35 27 24 25 26 30 41 46 42 21 16 15 14 14 15 16 16 18 19 20 20 22
89 88 84 80 85 84 81 92 94 96 94 94 96 96 95 96 88 80 97 76 69 45 31 23 22 24 27 32 45 72 64 23 20 19 18 18 18 18 20 20 20 20 24
82 88 72 82 88 86 92 95 93 95 92 95 97 95 97 93 93 78 85 70 66 58 44 29 22 18 18 20 28 66 82 54 25 20 19 20 19 19 21 23 23 23 25
99 85 83 92 88 88 95 94 93 92 92 95 93 96 96 92 89 84 88 84 79 68 63 61 58 38 23 18 27 45 72 79 72 38 21 21 21 22 24 26 28 28 29
100 96 84 81 75 74 84 88 87 88 94 95 96 96 95 95 97 89 93 97 93 89 83 84 77 74 53 27 23 27 43 61 60 68 51 24 25 26 27 27 28 29 31
97 87 77 76 66 65 72 95 94 89 85 85 89 97 95 93 96 97 93 91 94 90 100 92 84 80 69 39 23 24 30 35 47 50 50 46 34 26 27 28 28 28 29
95 94 82 63 64 64 70 82 90 94 85 83 90 79 96 95 92 92 92 92 93 89 97 98 93 85 74 61 39 38 37 40 50 57 52 54 44 44 43 39 35 33 32
97 95 93 64 61 66 60 63 71 82 85 86 83 94 94 95 94 95 88 90 86 84 80 80 93 88 94 96 79 67 63 61 56 66 62 66 67 55 44 40 41 39 39
96 96 96 69 54 64 68 67 75 70 68 92 88 90 88 83 92 90 90 92 94 94 90 80 84 88 76 76 96 94 82 82 76 74 72 74 72 60 50 44 45 48 55
96 96 92 87 83 92 80 69 84 72 70 78 86 89 92 88 87 90 95 86 93 92 89 85 84 82 86 77 63 91 89 81 79 75 60 54 51 42 44 52 54 59 60
94 86 92 90 91 86 82 85 90 84 65 64 74 74 80 88 96 92 91 86 82 84 79 82 82 70 91 92 94 97 92 84 70 60 62 56 59 57 60 64 73 84 87
84 93 97 94 90 89 80 96 73 62 74 80 66 81 95 88 89 90 96 93 94 95 96 95 93 92 98 97 96 95 93 90 83 89 93 91 100 95 95 92 91 89 97
95 94 92 90 87 70 78 78 87 77 85 86 93 96 95 96 96 98 97 93 96 95 96 93 88 88 98 97 98 97 97 96 96 97 96 77 79 98 97 91 89 93 94
98 95 96 97 78 96 85 85 78 84 84 96 96 96 92 97 96 96 97 97 97 96 97 96 84 95 79 98 98 100 96 92 70 55 80 77 66 98 87 91 95 89 95
96 96 98 97 89 84 86 85 87 82 62 94 94 98 92 93 92 96 96 93 95 96 94 93 79 70 80 89 78 86 86 96 69 86 93 68 76 83 97 88 81 87 95
98 85 98 97 93 100 77 94 94 96 74 80 94 83 88 90 94 96 93 94 93 89 81 92 89 62 52 61 75 74 73 74 56 65 79 57 69 72 75 94 73 63 45

GFSMA_500_rhum_246.txt.gz
RH
60 64 65 80 79 70 74 90 81 51 42 43 25 25 20 15 15 13 12 12 11 10 11 11 11 12 13 16 18 19 19 20 21 22 20 20 20 21 22 20 20 24 22
66 70 70 86 93 72 75 82 93 63 57 40 40 24 23 20 16 15 13 13 12 11 10 9 8 9 11 13 16 17 18 17 18 19 19 18 18 16 18 20 19 20 22
74 82 85 89 97 79 85 82 87 92 55 52 41 40 22 20 20 18 15 14 13 12 11 10 9 8 8 10 13 15 15 15 15 15 15 14 13 13 13 15 18 19 20
78 87 90 83 96 85 92 89 87 99 72 61 56 45 40 22 19 19 18 15 13 13 12 12 10 8 7 8 10 12 13 13 13 13 12 11 11 11 11 12 14 17 18
82 91 87 84 92 95 93 76 94 92 92 83 67 48 47 41 30 20 18 17 16 14 13 12 11 11 8 7 8 9 11 12 12 12 12 11 11 10 10 11 12 15 18
77 91 90 87 91 87 73 65 77 94 84 82 93 72 48 47 43 28 19 15 17 16 15 14 12 10 10 9 8 8 9 10 11 11 11 11 11 11 10 10 11 14 16
73 84 86 82 84 93 72 60 62 92 86 76 68 68 73 78 60 38 36 23 17 17 16 14 13 13 10 10 9 8 8 9 10 10 10 10 10 11 11 10 11 13 16
71 89 76 79 88 95 96 89 64 71 84 93 83 78 62 59 79 61 63 40 29 21 19 17 16 15 13 12 10 10 10 9 9 10 10 10 10 11 12 12 11 13 16
76 98 74 77 86 87 97 93 83 95 78 82 58 74 77 77 88 95 86 77 40 30 22 24 18 17 16 13 11 11 11 10 10 10 12 12 12 12 13 13 12 13 16
85 80 86 82 94 90 97 66 90 85 60 55 62 87 65 96 81 92 89 89 66 42 28 23 24 21 18 14 13 11 11 11 11 11 12 12 12 12 12 12 13 14 17
84 72 81 85 78 66 88 83 98 78 78 76 57 64 65 63 60 95 99 86 77 56 38 26 22 20 19 18 15 13 14 15 15 14 13 14 15 15 15 16 17 17 17
73 74 78 91 80 81 42 60 60 61 58 62 63 53 50 50 50 95 95 98 84 73 52 30 19 20 18 18 18 25 29 50 59 36 18 16 16 18 18 18 20 20 20
73 79 76 90 75 78 80 49 59 62 73 83 81 74 62 54 71 90 91 95 94 86 71 51 29 21 17 16 16 20 28 34 68 68 27 18 18 18 18 18 18 19 21
95 74 75 82 89 77 75 80 74 75 85 90 99 94 90 94 94 95 96 90 90 71 66 63 40 34 24 20 19 16 17 23 32 78 73 42 21 18 18 20 21 21 22
87 98 93 75 82 80 84 88 87 88 85 80 84 90 87 96 95 91 93 93 84 74 62 68 55 54 54 55 60 46 28 22 28 42 73 79 71 49 24 20 21 22 22
97 96 79 100 68 69 83 92 85 82 80 77 82 89 83 95 96 93 89 79 76 76 71 74 74 74 73 65 63 67 70 50 23 28 39 54 56 57 55 38 24 20 21
96 100 96 100 78 93 89 86 73 76 68 68 82 88 92 87 94 91 96 86 75 72 67 85 92 95 78 71 76 72 76 70 55 24 26 30 40 50 51 49 43 41 40
95 95 95 96 84 77 84 68 59 66 66 58 85 92 85 81 90 91 93 90 86 88 82 82 84 100 98 93 94 89 84 79 78 67 50 49 53 61 68 69 71 65 56
96 93 98 97 96 82 71 62 58 58 58 62 87 84 90 90 90 85 88 91 94 89 98 94 77 86 89 94 96 84 81 82 84 81 80 89 84 83 80 75 67 69 70
89 90 94 95 94 96 72 51 56 55 53 57 71 64 74 85 88 92 89 89 96 96 93 92 92 88 83 76 79 79 72 76 88 76 78 83 84 81 80 77 72 55 50
87 84 82 92 89 85 98 87 53 61 54 54 64 64 60 73 82 90 90 97 97 95 94 95 95 91 90 92 83 79 82 92 97 88 75 71 78 74 70 70 82 88 79
83 77 84 85 75 79 99 97 71 62 62 77 81 80 68 62 66 84 96 98 89 92 85 92 98 84 81 80 84 78 69 70 83 99 96 97 96 93 82 96 100 95 99
94 74 76 82 79 74 85 92 97 64 70 97 80 81 83 75 87 84 84 79 87 89 90 92 86 83 79 76 86 83 86 87 98 98 91 93 91 96 96 96 96 86 78
79 75 97 94 92 78 90 96 90 87 89 96 77 100 88 95 88 96 96 94 90 89 90 97 95 90 94 96 95 99 89 94 97 91 94 97 96 97 96 95 84 83 86
85 90 99 92 93 95 74 92 83 83 77 65 95 97 74 96 97 96 96 96 92 92 96 93 96 97 89 96 98 97 94 74 75 94 96 93 80 75 76 69 67 64 85
65 96 97 96 93 95 91 96 96 95 63 58 95 86 68 68 75 91 86 95 95 94 93 97 96 95 96 96 96 93 79 54 66 76 86 68 64 65 76 81 57 60 73